Time,TemperatureF,DewpointF,PressureIn,WindDirection,WindDirectionDegrees,WindSpeedMPH,WindSpeedGustMPH,Humidity,HourlyPrecipIn,Conditions,Clouds,dailyrainin,SoftwareType,DateUTC
2013-06-14 00:06:00,59.1,55.0,29.77,NE,34,0.0,2.0,87,0.00,,,0.00,weatherlink.com 1.10,2013-06-14 04:06:00,
2013-06-14 00:21:00,58.8,55.0,29.78,West,266,0.0,2.0,87,0.00,,,0.00,weatherlink.com 1.10,2013-06-14 04:21:00,
2013-06-14 00:36:00,58.4,55.0,29.78,WNW,295,0.0,3.0,88,0.00,,,0.00,weatherlink.com 1.10,2013-06-14 04:36:00,
2013-06-14 00:51:00,58.1,55.0,29.78,NW,318,0.0,3.0,88,0.00,,,0.00,weatherlink.com 1.10,2013-06-14 04:51:00,
2013-06-14 01:06:00,58.2,55.0,29.78,East,82,0.0,1.0,88,0.00,,,0.00,weatherlink.com 1.10,2013-06-14 05:06:00,
2013-06-14 01:21:00,57.9,54.0,29.79,NW,309,0.0,1.0,88,0.00,,,0.00,weatherlink.com 1.10,2013-06-14 05:21:00,
2013-06-14 01:36:00,57.6,54.0,29.80,South,176,0.0,1.0,88,0.00,,,0.00,weatherlink.com 1.10,2013-06-14 05:36:00,
2013-06-14 01:51:00,57.0,54.0,29.80,South,173,0.0,0.0,89,0.00,,,0.00,weatherlink.com 1.10,2013-06-14 05:51:00,
2013-06-14 02:06:00,56.2,54.0,29.80,South,173,0.0,0.0,91,0.00,,,0.00,weatherlink.com 1.10,2013-06-14 06:06:00,
2013-06-14 02:21:00,55.6,53.0,29.80,WSW,256,0.0,1.0,91,0.00,,,0.00,weatherlink.com 1.10,2013-06-14 06:21:00,
2013-06-14 02:36:00,55.6,53.0,29.81,WSW,256,0.0,1.0,92,0.00,,,0.00,weatherlink.com 1.10,2013-06-14 06:36:00,
2013-06-14 02:51:00,55.7,54.0,29.81,WSW,245,0.0,0.0,93,0.00,,,0.00,weatherlink.com 1.10,2013-06-14 06:51:00,
2013-06-14 03:06:00,56.3,54.0,29.81,NW,314,0.0,2.0,92,0.00,,,0.00,weatherlink.com 1.10,2013-06-14 07:06:00,
2013-06-14 03:21:00,56.4,54.0,29.81,WNW,291,0.0,1.0,91,0.00,,,0.00,weatherlink.com 1.10,2013-06-14 07:21:00,
2013-06-14 03:36:00,56.0,54.0,29.82,SW,217,0.0,1.0,92,0.00,,,0.00,weatherlink.com 1.10,2013-06-14 07:36:00,
2013-06-14 03:51:00,55.9,54.0,29.82,SW,217,0.0,0.0,92,0.00,,,0.00,weatherlink.com 1.10,2013-06-14 07:51:00,
2013-06-14 04:06:00,56.0,54.0,29.82,ESE,110,0.0,1.0,92,0.00,,,0.00,weatherlink.com 1.10,2013-06-14 08:06:00,
2013-06-14 04:21:00,56.5,54.0,29.83,ESE,117,0.0,3.0,92,0.00,,,0.00,weatherlink.com 1.10,2013-06-14 08:21:00,
2013-06-14 04:36:00,56.7,54.0,29.83,ESE,122,0.0,1.0,91,0.00,,,0.00,weatherlink.com 1.10,2013-06-14 08:36:00,
2013-06-14 04:51:00,57.0,55.0,29.84,WSW,250,0.0,1.0,91,0.00,,,0.00,weatherlink.com 1.10,2013-06-14 08:51:00,
2013-06-14 05:06:00,57.2,55.0,29.84,SSW,193,0.0,0.0,91,0.00,,,0.00,weatherlink.com 1.10,2013-06-14 09:06:00,
2013-06-14 05:21:00,57.3,55.0,29.84,WSW,242,0.0,1.0,91,0.00,,,0.00,weatherlink.com 1.10,2013-06-14 09:21:00,
2013-06-14 05:37:00,57.3,55.0,29.85,NW,306,0.0,2.0,91,0.00,,,0.00,weatherlink.com 1.10,2013-06-14 09:37:00,
2013-06-14 05:52:00,57.2,55.0,29.86,NW,307,0.0,1.0,91,0.00,,,0.00,weatherlink.com 1.10,2013-06-14 09:52:00,
2013-06-14 06:07:00,57.0,55.0,29.86,NNW,342,0.0,1.0,91,0.00,,,0.00,weatherlink.com 1.10,2013-06-14 10:07:00,
2013-06-14 06:22:00,57.2,55.0,29.87,West,276,1.0,1.0,91,0.00,,,0.00,weatherlink.com 1.10,2013-06-14 10:22:00,
2013-06-14 06:37:00,57.4,55.0,29.87,North,359,1.0,1.0,90,0.00,,,0.00,weatherlink.com 1.10,2013-06-14 10:37:00,
2013-06-14 06:52:00,57.7,55.0,29.87,North,11,0.0,1.0,90,0.00,,,0.00,weatherlink.com 1.10,2013-06-14 10:52:00,
2013-06-14 07:07:00,57.9,55.0,29.87,NW,307,0.0,1.0,90,0.00,,,0.00,weatherlink.com 1.10,2013-06-14 11:07:00,
2013-06-14 07:22:00,58.0,55.0,29.88,NNE,26,0.0,1.0,90,0.00,,,0.00,weatherlink.com 1.10,2013-06-14 11:22:00,
2013-06-14 07:37:00,58.6,56.0,29.88,WNW,288,0.0,1.0,90,0.00,,,0.00,weatherlink.com 1.10,2013-06-14 11:37:00,
2013-06-14 07:52:00,59.5,56.0,29.89,NE,47,0.0,1.0,88,0.00,,,0.00,weatherlink.com 1.10,2013-06-14 11:52:00,
2013-06-14 08:07:00,60.5,56.0,29.89,West,274,0.0,2.0,86,0.00,,,0.00,weatherlink.com 1.10,2013-06-14 12:07:00,
2013-06-14 08:22:00,61.1,57.0,29.90,West,278,0.0,2.0,85,0.00,,,0.00,weatherlink.com 1.10,2013-06-14 12:22:00,
2013-06-14 08:37:00,62.2,57.0,29.90,NW,316,1.0,4.0,82,0.00,,,0.00,weatherlink.com 1.10,2013-06-14 12:37:00,
2013-06-14 08:52:00,63.1,58.0,29.91,SSE,165,0.0,3.0,83,0.00,,,0.00,weatherlink.com 1.10,2013-06-14 12:52:00,
2013-06-14 09:07:00,63.1,57.0,29.91,West,262,0.0,2.0,81,0.00,,,0.00,weatherlink.com 1.10,2013-06-14 13:07:00,
2013-06-14 09:22:00,62.6,57.0,29.92,NE,34,0.0,3.0,82,0.00,,,0.00,weatherlink.com 1.10,2013-06-14 13:22:00,
2013-06-14 09:37:00,63.0,57.0,29.93,NE,54,1.0,2.0,81,0.00,,,0.00,weatherlink.com 1.10,2013-06-14 13:37:00,
2013-06-14 09:52:00,63.2,57.0,29.93,WNW,297,1.0,5.0,81,0.00,,,0.00,weatherlink.com 1.10,2013-06-14 13:52:00,
2013-06-14 10:07:00,64.8,58.0,29.93,SW,214,1.0,2.0,78,0.00,,,0.00,weatherlink.com 1.10,2013-06-14 14:07:00,
2013-06-14 10:22:00,65.8,58.0,29.94,WSW,238,0.0,1.0,77,0.00,,,0.00,weatherlink.com 1.10,2013-06-14 14:22:00,
2013-06-14 10:37:00,65.4,59.0,29.94,SE,125,0.0,2.0,80,0.00,,,0.00,weatherlink.com 1.10,2013-06-14 14:37:00,
2013-06-14 10:52:00,66.5,59.0,29.94,SW,224,1.0,3.0,78,0.00,,,0.00,weatherlink.com 1.10,2013-06-14 14:52:00,
2013-06-14 11:07:00,67.3,60.0,29.94,NW,307,1.0,4.0,77,0.00,,,0.00,weatherlink.com 1.10,2013-06-14 15:07:00,
2013-06-14 11:22:00,67.5,58.0,29.95,ENE,77,0.0,5.0,72,0.00,,,0.00,weatherlink.com 1.10,2013-06-14 15:22:00,
2013-06-14 11:37:00,67.4,60.0,29.95,WNW,282,0.0,4.0,77,0.00,,,0.00,weatherlink.com 1.10,2013-06-14 15:37:00,
2013-06-14 11:52:00,68.2,61.0,29.95,WNW,298,1.0,4.0,77,0.00,,,0.00,weatherlink.com 1.10,2013-06-14 15:52:00,
2013-06-14 12:07:00,67.9,59.0,29.96,West,269,0.0,5.0,72,0.00,,,0.00,weatherlink.com 1.10,2013-06-14 16:07:00,
2013-06-14 12:22:00,69.6,60.0,29.96,SSE,150,1.0,4.0,71,0.00,,,0.00,weatherlink.com 1.10,2013-06-14 16:22:00,
2013-06-14 12:37:00,68.5,59.0,29.96,SSW,205,3.0,6.0,71,0.00,,,0.00,weatherlink.com 1.10,2013-06-14 16:37:00,
2013-06-14 12:53:00,68.8,60.0,29.96,WNW,293,4.0,7.0,73,0.00,,,0.00,weatherlink.com 1.10,2013-06-14 16:53:00,
2013-06-14 13:08:00,71.0,59.0,29.96,SSW,207,3.0,8.0,67,0.00,,,0.00,weatherlink.com 1.10,2013-06-14 17:08:00,
2013-06-14 13:23:00,70.3,59.0,29.96,East,91,2.0,5.0,68,0.00,,,0.00,weatherlink.com 1.10,2013-06-14 17:23:00,
2013-06-14 13:38:00,71.3,60.0,29.97,ESE,120,4.0,4.0,67,0.00,,,0.00,weatherlink.com 1.10,2013-06-14 17:38:00,
2013-06-14 13:53:00,71.2,60.0,29.97,SSW,204,1.0,5.0,67,0.00,,,0.00,weatherlink.com 1.10,2013-06-14 17:53:00,
2013-06-14 14:08:00,71.2,58.0,29.96,SW,228,0.0,5.0,64,0.00,,,0.00,weatherlink.com 1.10,2013-06-14 18:08:00,
2013-06-14 14:23:00,72.2,59.0,29.96,South,190,3.0,6.0,64,0.00,,,0.00,weatherlink.com 1.10,2013-06-14 18:23:00,
2013-06-14 14:38:00,72.9,59.0,29.95,NW,321,2.0,6.0,61,0.00,,,0.00,weatherlink.com 1.10,2013-06-14 18:38:00,
2013-06-14 14:53:00,73.4,59.0,29.95,SSE,151,2.0,8.0,60,0.00,,,0.00,weatherlink.com 1.10,2013-06-14 18:53:00,
2013-06-14 15:08:00,73.5,59.0,29.95,WNW,294,2.0,6.0,61,0.00,,,0.00,weatherlink.com 1.10,2013-06-14 19:08:00,
2013-06-14 15:23:00,74.5,59.0,29.96,WSW,243,1.0,4.0,59,0.00,,,0.00,weatherlink.com 1.10,2013-06-14 19:23:00,
2013-06-14 15:38:00,74.9,60.0,29.95,WNW,297,2.0,6.0,61,0.00,,,0.00,weatherlink.com 1.10,2013-06-14 19:38:00,
2013-06-14 15:53:00,75.3,58.0,29.95,WSW,238,1.0,4.0,56,0.00,,,0.00,weatherlink.com 1.10,2013-06-14 19:53:00,
2013-06-14 16:08:00,75.1,59.0,29.95,NNE,20,1.0,4.0,58,0.00,,,0.00,weatherlink.com 1.10,2013-06-14 20:08:00,
2013-06-14 16:23:00,74.4,59.0,29.95,West,260,1.0,3.0,60,0.00,,,0.00,weatherlink.com 1.10,2013-06-14 20:23:00,
2013-06-14 16:38:00,75.5,61.0,29.95,WNW,290,1.0,5.0,61,0.00,,,0.00,weatherlink.com 1.10,2013-06-14 20:38:00,
2013-06-14 16:53:00,76.6,61.0,29.94,NW,319,2.0,4.0,58,0.00,,,0.00,weatherlink.com 1.10,2013-06-14 20:53:00,
2013-06-14 17:08:00,76.4,59.0,29.95,NNE,23,0.0,5.0,56,0.00,,,0.00,weatherlink.com 1.10,2013-06-14 21:08:00,
2013-06-14 17:23:00,76.1,59.0,29.95,NE,54,3.0,6.0,56,0.00,,,0.00,weatherlink.com 1.10,2013-06-14 21:23:00,
2013-06-14 17:38:00,75.7,60.0,29.96,WNW,301,2.0,4.0,58,0.00,,,0.00,weatherlink.com 1.10,2013-06-14 21:38:00,
2013-06-14 17:53:00,75.8,61.0,29.96,NE,34,3.0,4.0,60,0.00,,,0.00,weatherlink.com 1.10,2013-06-14 21:53:00,
2013-06-14 18:08:00,73.1,59.0,29.95,WNW,282,0.0,2.0,62,0.00,,,0.00,weatherlink.com 1.10,2013-06-14 22:08:00,
2013-06-14 18:23:00,74.5,60.0,29.95,SSE,167,1.0,3.0,60,0.00,,,0.00,weatherlink.com 1.10,2013-06-14 22:23:00,
2013-06-14 18:38:00,74.9,60.0,29.95,West,267,0.0,3.0,60,0.00,,,0.00,weatherlink.com 1.10,2013-06-14 22:38:00,
2013-06-14 18:53:00,74.1,60.0,29.95,SW,222,1.0,3.0,61,0.00,,,0.00,weatherlink.com 1.10,2013-06-14 22:53:00,
2013-06-14 19:08:00,73.2,60.0,29.96,WSW,243,0.0,2.0,63,0.00,,,0.00,weatherlink.com 1.10,2013-06-14 23:08:00,
2013-06-14 19:23:00,72.0,60.0,29.96,SW,224,1.0,3.0,65,0.00,,,0.00,weatherlink.com 1.10,2013-06-14 23:23:00,
2013-06-14 19:38:00,71.1,59.0,29.96,WNW,295,0.0,3.0,66,0.00,,,0.00,weatherlink.com 1.10,2013-06-14 23:38:00,
2013-06-14 19:53:00,70.7,60.0,29.96,WNW,287,0.0,1.0,68,0.00,,,0.00,weatherlink.com 1.10,2013-06-14 23:53:00,
2013-06-14 20:08:00,69.5,58.0,29.96,WNW,290,0.0,2.0,68,0.00,,,0.00,weatherlink.com 1.10,2013-06-15 00:08:00,
2013-06-14 20:23:00,68.4,58.0,29.97,West,276,0.0,1.0,70,0.00,,,0.00,weatherlink.com 1.10,2013-06-15 00:23:00,
2013-06-14 20:38:00,67.3,58.0,29.98,WNW,283,0.0,2.0,72,0.00,,,0.00,weatherlink.com 1.10,2013-06-15 00:38:00,
2013-06-14 20:53:00,66.1,58.0,29.99,WNW,283,0.0,0.0,74,0.00,,,0.00,weatherlink.com 1.10,2013-06-15 00:53:00,
2013-06-14 21:08:00,65.0,57.0,30.00,WNW,283,0.0,0.0,75,0.00,,,0.00,weatherlink.com 1.10,2013-06-15 01:08:00,
2013-06-14 21:23:00,64.2,57.0,30.00,WNW,283,0.0,0.0,76,0.00,,,0.00,weatherlink.com 1.10,2013-06-15 01:23:00,
2013-06-14 21:38:00,63.3,57.0,30.01,WNW,283,0.0,0.0,79,0.00,,,0.00,weatherlink.com 1.10,2013-06-15 01:38:00,
2013-06-14 21:53:00,61.7,56.0,30.02,WNW,283,0.0,0.0,82,0.00,,,0.00,weatherlink.com 1.10,2013-06-15 01:53:00,
2013-06-14 22:08:00,60.5,56.0,30.02,WNW,283,0.0,0.0,84,0.00,,,0.00,weatherlink.com 1.10,2013-06-15 02:08:00,
2013-06-14 22:24:00,59.5,55.0,30.03,WNW,283,0.0,0.0,86,0.00,,,0.00,weatherlink.com 1.10,2013-06-15 02:24:00,
2013-06-14 22:39:00,58.5,55.0,30.03,WNW,283,0.0,0.0,88,0.00,,,0.00,weatherlink.com 1.10,2013-06-15 02:39:00,
2013-06-14 22:54:00,57.5,54.0,30.04,WNW,283,0.0,0.0,89,0.00,,,0.00,weatherlink.com 1.10,2013-06-15 02:54:00,
2013-06-14 23:10:00,56.8,54.0,30.04,WNW,283,0.0,0.0,90,0.00,,,0.00,weatherlink.com 1.10,2013-06-15 03:10:00,
2013-06-14 23:24:00,56.6,54.0,30.05,WNW,283,0.0,0.0,91,0.00,,,0.00,weatherlink.com 1.10,2013-06-15 03:24:00,
2013-06-14 23:39:00,56.1,54.0,30.05,WNW,283,0.0,0.0,92,0.00,,,0.00,weatherlink.com 1.10,2013-06-15 03:39:00,
2013-06-14 23:54:00,55.9,54.0,30.05,WNW,283,0.0,0.0,92,0.00,,,0.00,weatherlink.com 1.10,2013-06-15 03:54:00,